Flag for USA

Past Weather in Unalaska, Alaska, USA — Yesterday and Last 2 Weeks

Now
52 °F

Clear.


Feels Like: 52 °F
Forecast: 61 / 54 °F
Wind: No wind

Location: Dutch Harbor

Current Time: Jul 3, 2020 at 3:38:50 am

Latest Report: Jul 3, 2020 at 2:56 am


Visibility: 10 mi

Pressure: 30.14 "Hg

Humidity: 93%

Dew Point: 50 °F

Location of UnalaskaLocation

Past Weather in Unalaska — Graph

°F

Unalaska Temperature Yesterday

Maximum temperature yesterday: 62 °F (at 2:56 am)
Minimum temperature yesterday: 52 °F (at 3:56 pm)
Average temperature yesterday: 56 °F

High & Low Weather Summary for the Past Weeks

 TemperatureHumidityPressure
High62 °F (Jul 1, 3:56 pm)96% (Jun 20, 6:56 am)30.32 "Hg (Jun 20, 6:56 am)
Low41 °F (Jun 23, 6:56 am)61% (Jul 1, 12:56 am)29.61 "Hg (Jun 27, 7:03 pm)
Average50 °F82%29.92 "Hg
* Reported Jun 18 1:24 am — Jul 3 1:56 am, Unalaska. Weather by CustomWeather, © 2020

Note: Actual official high and low records may vary slightly from our data, if they occured in-between our weather recording intervals... More about our weather records

Unalaska Weather History for the Previous 24 Hours

Scroll right to see more
 ConditionsComfort  
Time TempWeatherWind HumidityBarometerVisibility
1:56 am
Fri, Jul 3
51 °FPartly cloudy.3 mph92%30.16 "Hg10 mi
1:39 am52 °FMostly cloudy.No wind94%30.15 "Hg10 mi
12:56 am52 °FLow clouds.No wind93%30.16 "Hg10 mi
12:22 am52 °FMostly cloudy.3 mph88%30.15 "Hg10 mi
11:56 pm
Thu, Jul 2
52 °FOvercast.3 mph93%30.16 "Hg10 mi
10:56 pm53 °FOvercast.7 mph89%30.14 "Hg10 mi
9:56 pm52 °FPassing clouds.3 mph89%30.12 "Hg10 mi
8:56 pm56 °FSunny.No wind84%30.12 "Hg10 mi
8:03 pm54 °FSunny.5 mph88%30.11 "Hg10 mi
6:56 pm54 °FPartly sunny.5 mph86%30.13 "Hg10 mi
5:56 pm53 °FBroken clouds.6 mph86%30.14 "Hg10 mi
4:56 pm54 °FBroken clouds.5 mph86%30.14 "Hg10 mi
3:56 pm52 °FPartly sunny.7 mph89%30.15 "Hg10 mi
3:06 pm55 °FPartly sunny.6 mph88%30.13 "Hg10 mi
2:56 pm55 °FPartly sunny.9 mph90%30.14 "Hg10 mi
2:03 pm55 °FMostly cloudy.7 mph88%30.13 "Hg10 mi
12:56 pm54 °FCloudy.5 mph90%30.14 "Hg10 mi
12:36 pm57 °FMostly cloudy.9 mph88%30.12 "Hg10 mi
11:56 am56 °FLight rain. Mostly cloudy.8 mph90%30.13 "Hg8 mi
10:56 am58 °FLight rain. Mostly cloudy.7 mph87%30.12 "Hg10 mi
9:56 am56 °FPartly sunny.5 mph84%30.12 "Hg10 mi
8:56 am57 °FMostly cloudy.No wind87%30.11 "Hg10 mi
7:56 am58 °FPartly sunny.8 mph84%30.11 "Hg10 mi
6:56 am60 °FPartly sunny.12 mph80%30.10 "Hg10 mi
5:56 am58 °FPassing clouds.7 mph81%30.10 "Hg10 mi
4:56 am58 °FPartly cloudy.15 mph81%30.11 "Hg10 mi
3:56 am60 °FLight rain. Mostly cloudy.8 mph80%30.11 "Hg9 mi
Weather by CustomWeather, © 2020

See weather overview